Location: El Aguaje
(32.5720°N, 116.5281°W)
Time: 11:14:40
(UTC+00:00)

Daily predictions for brighter satellites

Satellite Brightness Start Highest point End
(mag) Time Altitude Azimuth Time Altitude Azimuth Time Altitude Azimuth
Cosmos 1184 Rocket 3.6 12:01:59 10° NNW 12:04:47 28° W 12:06:53 15° SSW
Cosmos 2208 Rocket 3.9 12:00:58 10° NNW 12:06:11 83° WSW 12:11:20 10° SSE
SL-19 R/B 4.4 12:05:28 10° SSE 12:11:06 87° ENE 12:17:06 10° NNW
Cosmos 1441 Rocket 3.3 12:08:51 10° NNW 12:12:44 61° W 12:16:38 10° S
Cosmos 1484 Rocket 2.8 12:11:34 10° N 12:15:33 71° WNW 12:19:31 10° SSW
Cosmos 1758 4.4 12:14:11 12° SW 12:17:03 26° WNW 12:20:25 10° NNW
FENGYUN 3A 4.1 12:12:11 10° N 12:17:19 45° WNW 12:22:24 10° SW
Cosmos 1503 Rocket 4.3 12:12:24 10° S 12:17:45 74° ESE 12:23:06 10° NNE
PSLV R/B 3.7 12:15:38 10° N 12:19:45 51° WNW 12:23:49 10° SSW
Cosmos 2278 Rocket 2.5 12:17:33 10° SW 12:23:02 52° WNW 12:28:35 10° N
USA 215 3.4 12:19:51 10° NE 12:26:19 66° NW 12:32:46 10° SW
Lacrosse 5 rocket 3.7 12:28:38 10° S 12:32:07 22° ESE 12:35:29 10° ENE
ALOS 3.3 12:30:28 10° NNW 12:34:26 28° WNW 12:38:23 10° SW
GPS 2-04 Rocket1 3.0 12:31:12 10° W 12:35:19 67° NNW 12:39:21 10° ENE
Meteor 1-21 Rocket 4.3 12:31:35 10° N 12:37:19 85° W 12:42:54 10° S
CZ-3 R/B 3.3 12:10:39 10° WSW 12:39:31 68° S 12:46:40 10° E
